Location: Hilton Head Island
(32.2163°N, 80.7526°W)
Time: 22:45:00
(UTC-04:00)

Vanguard 2 Rocket - Pass Details

Date: 24 February 2026
Orbit: 553 x 3286 km, 32.9° (Epoch: 13 March)

Event Time Altitude Azimuth Distance (km) Brightness Sun altitude
Rises 17:17:50 0° 287° (WNW) 6,654 12.3 11.2°
Reaches altitude 10° 17:23:09 10° 281° (W) 5,255 12.1 10.2°
Maximum altitude 17:35:41 39° 220° (SW) 2,445 9.9 7.6°
Drops below altitude 10° 17:43:16 10° 154° (SSE) 3,194 9.6 6.1°
Sets 17:45:44 0° 145° (SE) 3,871 9.9 5.6°
